Watford City, ND

3:29 AM CST on February 07, 2016 (GMT -0600)
Watford City

Weather History for KS25 - June, 2013

Change the Weather History Date:

Monday, June 24, 2013

  Actual Average (KISN) Record (KISN)
Temperature  
Mean Temperature 64 °F 66 °F  
Max Temperature 80 °F 79 °F 104 °F (1936)
Min Temperature 48 °F 52 °F 29 °F (2004)
Degree Days  
Heating Degree Days 1 2  
Month to date heating degree days 108  
Since 1 June heating degree days 108  
Since 1 July heating degree days 8982  
Cooling Degree Days 0 3  
Month to date cooling degree days 46  
Year to date cooling degree days 59  
Since 1 June cooling degree days 46  
Growing Degree Days 14 (Base 50)    
Moisture  
Dew Point 59 °F    
Average Humidity 76    
Maximum Humidity 100    
Minimum Humidity 51    
Precipitation  
Precipitation 0.00 in 0.09 in 0.97 in (1901)
Month to date precipitation 1.99  
Year to date precipitation 6.60  
Sea Level Pressure  
Sea Level Pressure 29.70 in    
Wind  
Wind Speed 6 mph (SE)    
Max Wind Speed 15 mph    
Max Gust Speed 23 mph    
Visibility 10 miles    
Events      
T = Trace of Precipitation, MM = Missing Value Source: NWS Daily Summary

Daily Weather History Graph

Daily Weather History Graph

Search for Another Location

Airport or City:

Trip Planner

Search our weather history database for the weather conditions in past years. The results will help you decide how hot, cold, wet, or windy it might be!

Date:

Astronomy

Jun. 24, 2013 Rise Set
Actual Time 5:55 AM CDT 9:55 PM CDT
Civil Twilight 5:14 AM CDT 10:36 PM CDT
Nautical Twilight 4:17 AM CDT 11:33 PM CDT
Astronomical Twilight 2:43 AM CDT 1:07 AM CDT
Moon 10:48 PM CDT (6/24) 7:34 AM CDT (6/24)
Length of Visible Light 17h 22m
Length of Day
16h 00m
Full, 98% of the Moon is Illuminated
Jun 24
Full
Jun 29
Last Quarter
Jul 8
New
Jul 15
First Quarter
Jul 22
Full

Hourly Weather History & Observations

Time (CDT) Temp. Heat Index Dew Point Humidity Pressure Visibility Wind Dir Wind Speed Gust Speed Precip Events Conditions
12:15 AM 55.4 °F - 53.6 °F 94% 29.75 in 10.0 mi SW 3.5 mph - N/A   Clear
12:35 AM 53.6 °F - 51.8 °F 94% 29.75 in 10.0 mi SSW 5.8 mph - N/A   Clear
12:55 AM 53.6 °F - 50.0 °F 88% 29.75 in 10.0 mi WSW 3.5 mph - N/A   Clear
1:15 AM 53.6 °F - 50.0 °F 88% 29.75 in 10.0 mi SW 4.6 mph - N/A   Clear
1:35 AM 53.6 °F - 51.8 °F 94% 29.76 in 10.0 mi WSW 3.5 mph - N/A   Clear
1:55 AM 53.6 °F - 50.0 °F 88% 29.76 in 10.0 mi WSW 4.6 mph - N/A   Clear
2:15 AM 53.6 °F - 50.0 °F 88% 29.76 in 10.0 mi SW 4.6 mph - N/A   Clear
2:35 AM 53.6 °F - 50.0 °F 88% 29.76 in 10.0 mi WSW 4.6 mph - N/A   Clear
2:55 AM 53.6 °F - 50.0 °F 88% 29.76 in 10.0 mi SW 4.6 mph - N/A   Clear
3:15 AM 50.0 °F - 50.0 °F 100% 29.76 in 10.0 mi SW 5.8 mph - N/A   Clear
3:35 AM 51.8 °F - 50.0 °F 94% 29.75 in 10.0 mi Calm Calm - N/A   Clear
3:55 AM 50.0 °F - 48.2 °F 94% 29.76 in 10.0 mi South 4.6 mph - N/A   Clear
4:15 AM 51.8 °F - 48.2 °F 88% 29.75 in 10.0 mi South 5.8 mph - N/A   Clear
4:35 AM 51.8 °F - 48.2 °F 88% 29.75 in 10.0 mi Calm Calm - N/A   Clear
4:55 AM 51.8 °F - 48.2 °F 88% 29.75 in 10.0 mi WSW 3.5 mph - N/A   Clear
5:15 AM 51.8 °F - 48.2 °F 88% 29.74 in 10.0 mi Calm Calm - N/A   Clear
5:35 AM 50.0 °F - 48.2 °F 94% 29.74 in 10.0 mi Calm Calm - N/A   Clear
5:55 AM 48.2 °F - 48.2 °F 100% 29.74 in 10.0 mi East 3.5 mph - N/A   Clear
6:15 AM 50.0 °F - 48.2 °F 94% 29.74 in 10.0 mi SE 3.5 mph - N/A   Clear
6:35 AM 51.8 °F - 50.0 °F 94% 29.75 in 10.0 mi ESE 8.1 mph - N/A   Clear
6:55 AM 53.6 °F - 50.0 °F 88% 29.74 in 10.0 mi Calm Calm - N/A   Clear
7:15 AM 53.6 °F - 50.0 °F 88% 29.75 in 10.0 mi ESE 3.5 mph - N/A   Clear
7:35 AM 55.4 °F - 53.6 °F 94% 29.75 in 10.0 mi East 3.5 mph - N/A   Clear
7:55 AM 57.2 °F - 53.6 °F 88% 29.75 in 10.0 mi ESE 4.6 mph - N/A   Clear
8:15 AM 59.0 °F - 53.6 °F 82% 29.75 in 10.0 mi East 4.6 mph - N/A   Clear
8:35 AM 60.8 °F - 55.4 °F 82% 29.74 in 10.0 mi East 4.6 mph - N/A   Clear
8:55 AM 62.6 °F - 57.2 °F 82% 29.74 in 10.0 mi East 4.6 mph - N/A   Clear
9:15 AM 64.4 °F - 57.2 °F 77% 29.73 in 10.0 mi ESE 3.5 mph - N/A   Clear
9:35 AM 66.2 °F - 59.0 °F 78% 29.73 in 10.0 mi SE 4.6 mph - N/A   Clear
9:55 AM 69.8 °F - 60.8 °F 73% 29.73 in 10.0 mi South 8.1 mph - N/A   Clear
10:15 AM 71.6 °F - 59.0 °F 64% 29.72 in 10.0 mi South 4.6 mph - N/A   Clear
10:35 AM 73.4 °F - 59.0 °F 61% 29.72 in 10.0 mi Calm Calm - N/A   Clear
10:55 AM 73.4 °F - 59.0 °F 61% 29.72 in 10.0 mi Calm Calm - N/A   Clear
11:15 AM 75.2 °F - 62.6 °F 65% 29.72 in 10.0 mi East 3.5 mph - N/A   Clear
11:35 AM 75.2 °F - 62.6 °F 65% 29.72 in 10.0 mi East 8.1 mph - N/A   Clear
11:55 AM 75.2 °F - 62.6 °F 65% 29.71 in 10.0 mi East 6.9 mph - N/A   Clear
12:15 PM 75.2 °F - 62.6 °F 65% 29.71 in 10.0 mi ESE 5.8 mph - N/A   Clear
12:35 PM 77.0 °F - 64.4 °F 65% 29.71 in 10.0 mi East 6.9 mph - N/A   Clear
12:55 PM 77.0 °F - 66.2 °F 69% 29.70 in 10.0 mi East 8.1 mph - N/A   Clear
1:15 PM 77.0 °F - 66.2 °F 69% 29.70 in 10.0 mi ESE 6.9 mph - N/A   Clear
1:35 PM 78.8 °F - 66.2 °F 65% 29.69 in 10.0 mi ESE 11.5 mph - N/A   Clear
1:55 PM 78.8 °F - 64.4 °F 61% 29.69 in 10.0 mi East 10.4 mph - N/A   Clear
2:15 PM 80.6 °F 82.3 °F 64.4 °F 58% 29.68 in 10.0 mi ESE 12.7 mph - N/A   Clear
2:35 PM 80.6 °F 82.3 °F 64.4 °F 58% 29.68 in 10.0 mi ESE 13.8 mph - N/A   Clear
2:55 PM 80.6 °F 81.8 °F 62.6 °F 54% 29.67 in 10.0 mi ESE 12.7 mph 20.7 mph N/A   Clear
3:15 PM 80.6 °F 81.8 °F 62.6 °F 54% 29.67 in 10.0 mi ESE 10.4 mph - N/A   Clear
3:35 PM 80.6 °F 81.8 °F 62.6 °F 54% 29.67 in 10.0 mi SE 13.8 mph 18.4 mph N/A   Clear
3:55 PM 80.6 °F 81.5 °F 60.8 °F 51% 29.66 in 10.0 mi SSE 15.0 mph 23.0 mph N/A   Clear
4:15 PM 80.6 °F 81.8 °F 62.6 °F 54% 29.67 in 10.0 mi ESE 15.0 mph 21.9 mph N/A   Partly Cloudy
4:35 PM 80.6 °F 82.3 °F 64.4 °F 58% 29.67 in 10.0 mi SE 15.0 mph - N/A   Partly Cloudy
4:55 PM 80.6 °F 82.7 °F 66.2 °F 61% 29.66 in 10.0 mi SE 11.5 mph 18.4 mph N/A   Clear
5:15 PM 80.6 °F 82.7 °F 66.2 °F 61% 29.66 in 10.0 mi SE 12.7 mph - N/A   Clear
5:35 PM 80.6 °F 83.2 °F 68.0 °F 65% 29.66 in 10.0 mi ESE 10.4 mph - N/A   Scattered Clouds
5:55 PM 80.6 °F 83.2 °F 68.0 °F 65% 29.65 in 10.0 mi SE 9.2 mph - N/A   Partly Cloudy
6:15 PM 80.6 °F 83.2 °F 68.0 °F 65% 29.65 in 10.0 mi ESE 13.8 mph - N/A   Scattered Clouds
6:35 PM 78.8 °F - 68.0 °F 69% 29.64 in 10.0 mi ESE 13.8 mph - N/A   Partly Cloudy
6:55 PM 78.8 °F - 66.2 °F 65% 29.64 in 10.0 mi SE 11.5 mph - N/A   Clear
7:15 PM 78.8 °F - 66.2 °F 65% 29.64 in 10.0 mi SE 12.7 mph 17.3 mph N/A   Clear
7:35 PM 78.8 °F - 66.2 °F 65% 29.64 in 10.0 mi SE 10.4 mph - N/A   Clear
7:55 PM 77.0 °F - 66.2 °F 69% 29.64 in 10.0 mi SE 6.9 mph - N/A   Clear
8:15 PM 77.0 °F - 68.0 °F 74% 29.64 in 10.0 mi ESE 5.8 mph - N/A   Clear
8:35 PM 77.0 °F - 66.2 °F 69% 29.65 in 10.0 mi ESE 9.2 mph - N/A   Clear
8:55 PM 75.2 °F - 66.2 °F 73% 29.64 in 10.0 mi ESE 5.8 mph - N/A   Clear
9:15 PM 73.4 °F - 66.2 °F 78% 29.65 in 10.0 mi East 6.9 mph - N/A   Clear
9:35 PM 71.6 °F - 64.4 °F 78% 29.65 in 10.0 mi ESE 3.5 mph - N/A   Clear
9:55 PM 69.8 °F - 64.4 °F 83% 29.65 in 10.0 mi ESE 5.8 mph - N/A   Clear
10:15 PM 68.0 °F - 62.6 °F 83% 29.65 in 10.0 mi East 4.6 mph - N/A   Clear
10:35 PM 68.0 °F - 62.6 °F 83% 29.66 in 10.0 mi ESE 6.9 mph - N/A   Clear
10:55 PM 68.0 °F - 62.6 °F 83% 29.66 in 10.0 mi ESE 6.9 mph - N/A   Clear
11:15 PM 66.2 °F - 62.6 °F 88% 29.66 in 10.0 mi ESE 8.1 mph - N/A   Partly Cloudy
11:35 PM 66.2 °F - 62.6 °F 88% 29.65 in 10.0 mi ESE 8.1 mph - N/A   Partly Cloudy
11:55 PM 66.2 °F - 62.6 °F 88% 29.63 in 10.0 mi East 6.9 mph - N/A   Clear